PDT,Max TemperatureF,Mean TemperatureF,Min TemperatureF,Max Dew PointF,MeanDew PointF,Min DewpointF,Max Humidity, Mean Humidity, Min Humidity, Max Sea Level PressureIn, Mean Sea Level PressureIn, Min Sea Level PressureIn, Max VisibilityMiles, Mean VisibilityMiles, Min VisibilityMiles, Max Wind SpeedMPH, Mean Wind SpeedMPH, Max Gust SpeedMPH,PrecipitationIn, CloudCover, Events, WindDirDegrees
2012-9-1,68,64,59,57,54,52,88,73,64,30.05,30.01,29.97,20,13,7,15,8,,0.00,3,,332
2012-9-2,78,64,51,61,57,50,94,72,47,29.99,29.95,29.89,20,8,5,16,6,22,0.00,2,,356
2012-9-3,80,66,51,61,58,50,94,68,45,29.97,29.93,29.89,15,15,15,22,9,,0.00,0,,348
2012-9-4,71,64,57,57,56,54,88,74,57,30.03,30.00,29.95,20,11,6,17,8,23,0.00,2,,336
2012-9-5,69,64,59,59,57,55,88,79,64,30.00,29.97,29.94,10,8,7,14,8,,0.00,7,Rain,346
2012-9-6,71,65,59,57,56,55,88,74,57,30.00,29.97,29.94,15,11,7,18,6,,0.00,4,,344
2012-9-7,73,66,59,57,55,54,82,69,53,30.09,30.05,30.00,20,14,10,16,9,,0.00,1,,349
2012-9-8,68,60,53,57,54,50,88,70,64,30.08,30.02,29.97,20,14,8,18,10,,0.00,0,,339
2012-9-9,77,70,60,57,54,50,68,59,47,30.01,29.96,29.92,,,,21,11,,0.00,0,,339
2012-9-10,77,67,57,,,,,,,29.94,29.89,29.81,20,12,7,16,8,,0.00,1,,351
2012-9-11,75,63,51,61,57,50,94,74,57,29.94,29.90,29.87,15,10,8,18,8,,0.00,1,,342
2012-9-12,71,65,59,59,58,55,94,78,60,30.07,30.03,29.99,20,11,7,14,7,,0.00,3,,350
2012-9-13,75,67,59,61,58,57,94,76,57,30.10,30.06,30.01,15,8,4,20,9,,0.00,4,,341
2012-9-14,71,64,57,57,56,54,88,75,60,30.11,30.07,30.02,20,11,7,16,8,,0.00,3,,351
2012-9-15,71,64,57,57,55,54,88,73,53,30.11,30.06,30.00,15,9,8,14,8,,0.00,2,,342
2012-9-16,71,63,55,57,55,52,94,77,60,30.06,30.01,29.96,20,10,7,14,7,,0.00,6,,354
2012-9-17,68,64,59,55,54,54,82,73,64,30.07,30.03,29.99,10,9,7,16,8,,0.00,3,,349
2012-9-18,68,62,55,54,52,50,82,70,60,30.12,30.08,30.03,15,13,10,16,11,,0.00,2,,339
2012-9-19,68,58,48,55,52,46,93,74,60,30.13,30.09,30.05,20,14,10,15,9,,0.00,2,,344
2012-9-20,73,60,48,55,52,45,88,69,53,30.09,30.04,29.98,15,10,8,17,7,,0.00,1,,351
2012-9-21,73,60,48,57,54,45,88,69,47,30.01,29.94,29.90,15,13,10,13,7,,0.00,5,,354
2012-9-22,77,62,48,57,55,46,93,67,44,29.94,29.90,29.86,10,9,7,15,8,,0.00,1,,351
2012-9-23,75,62,50,59,56,48,94,73,50,29.97,29.94,29.91,10,8,7,15,7,,0.00,5,,338
2012-9-24,71,63,55,59,56,54,94,74,60,29.98,29.93,29.88,20,12,8,14,7,,0.00,2,,347
2012-9-25,71,64,57,59,56,54,94,75,60,29.93,29.89,29.85,20,10,7,13,8,,0.00,1,,340
2012-9-26,69,64,59,57,56,55,88,77,64,29.91,29.88,29.83,10,7,5,14,7,,0.00,3,,354
2012-9-27,73,65,57,59,57,54,94,79,61,29.94,29.88,29.83,8,6,2,12,7,,0.00,3,,347
2012-9-28,66,62,57,57,56,54,94,83,73,29.97,29.94,29.90,20,9,5,15,8,,0.00,4,,346
2012-9-29,71,64,57,59,57,54,100,78,60,30.04,30.00,29.97,15,7,5,14,8,,0.00,2,,357
2012-9-30,86,70,55,63,57,50,88,63,33,30.06,30.01,29.94,15,12,10,17,7,,0.00,0,,342